Bloomington, IN

3:39 PM EDT on August 20, 2017 (GMT -0400)
Monroe County

Weather History for KBMG - October, 2012

Change the Weather History Date:

Thursday, October 4, 2012

  Actual Average Record
Temperature  
Mean Temperature 64 °F 58 °F  
Max Temperature 77 °F 71 °F 87 °F (2006)
Min Temperature 51 °F 46 °F 35 °F (2010)
Degree Days  
Heating Degree Days 1 8  
Month to date heating degree days 19 29  
Since 1 July heating degree days 124 114  
Cooling Degree Days 0 1  
Month to date cooling degree days 0 4  
Year to date cooling degree days 1296 917  
Growing Degree Days 14 (Base 50)    
Moisture  
Dew Point 54 °F    
Average Humidity 72    
Maximum Humidity 93    
Minimum Humidity 50    
Precipitation  
Precipitation 0.00 in 0.12 in 2.47 in (2000)
Month to date precipitation 0.92 0.48  
Year to date precipitation 24.60 37.02  
Sea Level Pressure  
Sea Level Pressure 30.14 in    
Wind  
Wind Speed 7 mph (SSW)    
Max Wind Speed 16 mph    
Max Gust Speed 22 mph    
Visibility 10 miles    
Events      
T = Trace of Precipitation, MM = Missing Value Source: NWS Daily Summary

Daily Weather History Graph

Daily Weather History Graph

Search for Another Location

Airport or City:

Trip Planner

Search our weather history database for the weather conditions in past years. The results will help you decide how hot, cold, wet, or windy it might be!

Date:

Astronomy

Oct. 04, 2012 Rise Set
Actual Time 7:45 AM EDT 7:23 PM EDT
Civil Twilight 7:19 AM EDT 7:50 PM EDT
Nautical Twilight 6:48 AM EDT 8:21 PM EDT
Astronomical Twilight 6:16 AM EDT 8:52 PM EDT
Moon 10:00 PM EDT (10/4) 12:00 PM EDT (10/4)
Length of Visible Light 12h 31m
Length of Day
11h 37m
Waning Gibbous, 82% of the Moon is Illuminated
Oct 4
Waning Gibbous
Oct 8
Last Quarter
Oct 15
New
Oct 21
First Quarter
Oct 29
Full

Hourly Weather History & Observations

Time (EDT) Temp. Dew Point Humidity Pressure Visibility Wind Dir Wind Speed Gust Speed Precip Events Conditions
12:53 AM 61.0 °F 50.0 °F 67% 30.12 in 10.0 mi SW 5.8 mph - N/A   Mostly Cloudy
1:53 AM 55.9 °F 50.0 °F 80% 30.11 in 10.0 mi SSE 5.8 mph - N/A   Clear
2:53 AM 57.0 °F 51.1 °F 81% 30.12 in 10.0 mi SSW 3.5 mph - N/A   Overcast
3:53 AM 57.0 °F 52.0 °F 83% 30.11 in 10.0 mi Calm Calm - N/A   Overcast
4:53 AM 54.0 °F 51.1 °F 90% 30.12 in 10.0 mi Calm Calm - N/A   Scattered Clouds
5:53 AM 52.0 °F 48.9 °F 89% 30.14 in 10.0 mi SSE 4.6 mph - N/A   Clear
6:53 AM 53.1 °F 50.0 °F 89% 30.15 in 10.0 mi South 3.5 mph - N/A   Mostly Cloudy
7:53 AM 57.0 °F 51.1 °F 81% 30.15 in 10.0 mi SW 6.9 mph - N/A   Mostly Cloudy
8:53 AM 59.0 °F 53.1 °F 81% 30.16 in 10.0 mi SW 5.8 mph - N/A   Clear
9:53 AM 63.0 °F 54.0 °F 72% 30.17 in 10.0 mi SW 8.1 mph - N/A   Clear
10:53 AM 68.0 °F 55.9 °F 65% 30.19 in 10.0 mi SW 12.7 mph - N/A   Clear
11:53 AM 71.1 °F 55.9 °F 59% 30.18 in 10.0 mi WSW 10.4 mph - N/A   Clear
12:53 PM 73.9 °F 57.0 °F 55% 30.17 in 10.0 mi WSW 12.7 mph 17.3 mph N/A   Clear
1:53 PM 75.9 °F 57.0 °F 52% 30.15 in 10.0 mi WSW 10.4 mph - N/A   Clear
2:53 PM 77.0 °F 57.0 °F 50% 30.13 in 10.0 mi SW 10.4 mph 19.6 mph N/A   Scattered Clouds
3:53 PM 77.0 °F 57.0 °F 50% 30.13 in 10.0 mi SW 10.4 mph - N/A   Scattered Clouds
4:53 PM 75.9 °F 55.9 °F 50% 30.12 in 10.0 mi SW 11.5 mph 18.4 mph N/A   Partly Cloudy
5:53 PM 75.0 °F 55.9 °F 51% 30.12 in 10.0 mi SW 12.7 mph - N/A   Clear
6:53 PM 72.0 °F 57.0 °F 59% 30.12 in 10.0 mi SSW 5.8 mph - N/A   Partly Cloudy
7:53 PM 64.9 °F 57.0 °F 75% 30.13 in 10.0 mi South 4.6 mph - N/A   Clear
8:53 PM 64.9 °F 55.9 °F 73% 30.13 in 10.0 mi SSW 5.8 mph - N/A   Clear
9:53 PM 66.0 °F 55.9 °F 70% 30.12 in 10.0 mi SSW 9.2 mph - N/A   Clear
10:53 PM 64.9 °F 55.9 °F 73% 30.12 in 10.0 mi WSW 4.6 mph - N/A   Clear
11:53 PM 64.0 °F 55.0 °F 73% 30.11 in 10.0 mi SSW 5.8 mph - N/A   Clear